SCOUT A DEB, 2778

Orbit data source: Space-Track

SCOUT A DEB, 2778 is space debris in LEO originally from a launch on Fri, 14 Apr 1967 UTC launched from the Air Force Western Test Range (AFWTR). Debris objects in space refer to the collection of defunct objects orbiting the Earth. Examples of debris include non-operational satellites, rocket bodies, and fragments generated from explosions, collisions, or faulty payload assembly.

Loading next visibility...
Identifier
2778, 1967-034D
Orbit
LEO
Country
Flag of USUS
Related business
Manufacturer
Unknown
Mission
Spacecraft
Bus & Motor
Unknown
Mass
Unknown
Launch date (UTC)
1967-04-14 (58 years ago)
Launch vehicle
Unknown
Launch site
Air Force Western Test Range (AFWTR)
Object type
Payload
Rocket body
Debris
Shape & HBR
Unknown
Radar Cross Section
Small (<0.1 m²)

Expand to show TLE details & history
Last TLE update: 22 hours ago

TLE from 22 hours ago
0 SCOUT A DEB
1 02778U 67034D   25242.22412906  .00000317  00000-0  58051-3 0  9998
2 02778  89.8389  41.9201 0124775  95.1240  84.6377 13.35146091834323
Epoch: 2025-08-30T05:22Z
TLE epoch observation values (Epoch: 2025-08-30T05:22:44.75Z)
Latitude
-1.30913°
Longitude
162.57581°
Altitude
1,122.934 km
Speed
7.295 km/s
True Right ascension
14h 47m 41s
True Declination
-1° 18' 06"
Sunlit
Object was in daylight at epoch
Visualization orbit readout
Latitude
Unknown
Longitude
Unknown
Altitude
Unknown
Speed
Unknown
Apparent Right ascension
Unknown
Apparent Declination
Unknown
Sunlit
N/A
Visualization observer readout
Local Sidereal Time
18:33:16
Azimuth
Unknown
Elevation
Unknown
Doppler factor
Unknown
Orbital elements
Apogee altitude
1,218.1 km
Perigee altitude
1,030.872 km
Semi-major axis
7,502.623 km
Eccentricity
0.01248
Inclination
89.8389°
RAAN
41.9201°
Arg. of periapsis
95.124°
True anomaly
86.06319°
Mean anomaly
84.6377°
Eccentric anomaly
85.35026°
Mean motion
3.33982 °/min
Orbital period
107.79 mins
BSTAR
0.00058051
Loading maneuver chart data...
Computing Atmospheric mass density...
Loading historical data...
Loading historical data...
Loading historical data...
Loading historical data...
Loading historical data...
Loading historical data...
Loading historical data...

Documentation

Showing up to 5 results
|